EZY346J EGAC-EGPF

Flight info

Callsign EZY346J
Flight time 0h 28m
Altitude 21000
Route MAGEE DCT BLACA
Aircraft A319/M-SDE3FGHIRWY/LB1

Departure

Time 2026-05-07 12:22
Airport George Best Belfast City Airport (EGAC)

Arrival

Time 2026-05-07 12:51
Airport Glasgow Airport (EGPF)
Time Latitude Longitude Altitude Speed Heading
2026-05-07 12:01 54.61432 -5.87218 22 ft 0 kts 126°
2026-05-07 12:15 54.61434 -5.87222 21 ft 3 kts 125°
2026-05-07 12:15 54.61447 -5.87260 25 ft 4 kts 110°
2026-05-07 12:15 54.61452 -5.87303 23 ft 4 kts 73°
2026-05-07 12:15 54.61443 -5.87329 25 ft 1 kts 34°
2026-05-07 12:16 54.61440 -5.87333 24 ft 0 kts 34°
2026-05-07 12:17 54.61454 -5.87315 22 ft 5 kts 34°
2026-05-07 12:18 54.61499 -5.87262 21 ft 10 kts 34°
2026-05-07 12:18 54.61564 -5.87185 21 ft 12 kts 35°
2026-05-07 12:18 54.61635 -5.87099 21 ft 13 kts 34°
2026-05-07 12:18 54.61712 -5.87008 22 ft 11 kts 34°
2026-05-07 12:19 54.61772 -5.87030 22 ft 11 kts 304°
2026-05-07 12:19 54.61827 -5.87153 18 ft 15 kts 317°
2026-05-07 12:19 54.61917 -5.87121 18 ft 16 kts 34°
2026-05-07 12:19 54.62030 -5.86989 17 ft 22 kts 34°
2026-05-07 12:20 54.62166 -5.86828 18 ft 25 kts 34°
2026-05-07 12:20 54.62302 -5.86662 20 ft 24 kts 35°
2026-05-07 12:20 54.62410 -5.86495 22 ft 15 kts 69°
2026-05-07 12:20 54.62468 -5.86431 19 ft 12 kts 331°
2026-05-07 12:21 54.62456 -5.86480 20 ft 4 kts 207°
2026-05-07 12:21 54.62451 -5.86487 20 ft 0 kts 213°
2026-05-07 12:21 54.62450 -5.86487 20 ft 1 kts 213°
2026-05-07 12:22 54.62311 -5.86655 20 ft 66 kts 216°
2026-05-07 12:22 54.61961 -5.87071 16 ft 117 kts 214°
2026-05-07 12:22 54.61194 -5.87965 479 ft 136 kts 214°
2026-05-07 12:22 54.60419 -5.88906 1269 ft 137 kts 212°
2026-05-07 12:23 54.59567 -5.89872 1825 ft 157 kts 206°
2026-05-07 12:23 54.58397 -5.89854 2188 ft 193 kts 157°
2026-05-07 12:23 54.57355 -5.88103 2735 ft 230 kts 125°
2026-05-07 12:23 54.57104 -5.84233 3670 ft 272 kts 75°
2026-05-07 12:24 54.57650 -5.82203 4390 ft 279 kts 60°
2026-05-07 12:24 54.58780 -5.79466 5555 ft 282 kts 52°
2026-05-07 12:24 54.60071 -5.76880 6673 ft 287 kts 49°
2026-05-07 12:24 54.61402 -5.74323 7710 ft 293 kts 49°
2026-05-07 12:25 54.62763 -5.71661 8735 ft 300 kts 50°
2026-05-07 12:25 54.64132 -5.68890 9752 ft 306 kts 50°
2026-05-07 12:25 54.65514 -5.66000 10429 ft 324 kts 51°
2026-05-07 12:25 54.66984 -5.62854 10837 ft 348 kts 52°
2026-05-07 12:26 54.68531 -5.59495 11410 ft 364 kts 52°
2026-05-07 12:26 54.70117 -5.56026 12267 ft 370 kts 52°
2026-05-07 12:26 54.71720 -5.52504 13129 ft 376 kts 52°
2026-05-07 12:26 54.73347 -5.48925 13994 ft 381 kts 52°
2026-05-07 12:27 54.74995 -5.45304 14786 ft 385 kts 52°
2026-05-07 12:27 54.76663 -5.41639 15574 ft 389 kts 52°
2026-05-07 12:27 54.78343 -5.37945 16384 ft 392 kts 52°
2026-05-07 12:27 54.80037 -5.34220 17182 ft 395 kts 52°
2026-05-07 12:28 54.81745 -5.30460 17971 ft 399 kts 52°
2026-05-07 12:28 54.83470 -5.26654 18630 ft 403 kts 52°
2026-05-07 12:28 54.85205 -5.22820 18876 ft 405 kts 53°
2026-05-07 12:28 54.87020 -5.19038 18963 ft 416 kts 47°
2026-05-07 12:29 54.89223 -5.15660 18975 ft 426 kts 37°
2026-05-07 12:29 54.91744 -5.12934 18977 ft 429 kts 27°
2026-05-07 12:29 54.94424 -5.10640 18975 ft 430 kts 25°
2026-05-07 12:29 54.97108 -5.08335 18964 ft 430 kts 26°
2026-05-07 12:30 54.99763 -5.06038 18736 ft 423 kts 26°
2026-05-07 12:30 55.02324 -5.03812 18505 ft 411 kts 26°
2026-05-07 12:30 55.04836 -5.01621 18360 ft 397 kts 26°
2026-05-07 12:30 55.07293 -4.99475 18220 ft 382 kts 26°
2026-05-07 12:31 55.09597 -4.97462 18091 ft 369 kts 26°
2026-05-07 12:31 55.11850 -4.95493 17934 ft 357 kts 26°
2026-05-07 12:31 55.14053 -4.93573 17599 ft 351 kts 26°
2026-05-07 12:31 55.16230 -4.91672 17189 ft 349 kts 26°
2026-05-07 12:32 55.18393 -4.89780 16816 ft 346 kts 25°
2026-05-07 12:32 55.20538 -4.87901 16427 ft 344 kts 25°
2026-05-07 12:32 55.22671 -4.86027 16031 ft 342 kts 26°
2026-05-07 12:32 55.24794 -4.84156 15648 ft 341 kts 26°
2026-05-07 12:33 55.29017 -4.80436 14889 ft 338 kts 25°
2026-05-07 12:33 55.31024 -4.78310 14522 ft 337 kts 37°
2026-05-07 12:33 55.32712 -4.75463 14161 ft 336 kts 51°
2026-05-07 12:34 55.34177 -4.72278 13808 ft 335 kts 52°
2026-05-07 12:34 55.35641 -4.69107 13412 ft 334 kts 52°
2026-05-07 12:34 55.37101 -4.65956 13044 ft 332 kts 52°
2026-05-07 12:34 55.38558 -4.62820 12702 ft 330 kts 52°
2026-05-07 12:35 55.40003 -4.59709 12382 ft 328 kts 52°
2026-05-07 12:35 55.41441 -4.56606 12055 ft 326 kts 52°
2026-05-07 12:35 55.42865 -4.53527 11692 ft 324 kts 52°
2026-05-07 12:35 55.44281 -4.50459 11337 ft 321 kts 52°
2026-05-07 12:36 55.45685 -4.47410 10976 ft 319 kts 52°
2026-05-07 12:36 55.47072 -4.44392 10676 ft 315 kts 52°
2026-05-07 12:36 55.48442 -4.41407 10447 ft 312 kts 52°
2026-05-07 12:36 55.49803 -4.38433 10207 ft 311 kts 52°
2026-05-07 12:37 55.51161 -4.35467 9966 ft 310 kts 52°
2026-05-07 12:37 55.52511 -4.32516 9728 ft 308 kts 52°
2026-05-07 12:37 55.53854 -4.29576 9487 ft 307 kts 52°
2026-05-07 12:37 55.55192 -4.26636 9248 ft 306 kts 52°
2026-05-07 12:38 55.56524 -4.23706 9019 ft 305 kts 53°
2026-05-07 12:38 55.57852 -4.20783 8790 ft 305 kts 52°
2026-05-07 12:38 55.59159 -4.17909 8560 ft 303 kts 52°
2026-05-07 12:38 55.60477 -4.15008 8331 ft 303 kts 53°
2026-05-07 12:39 55.61795 -4.12108 8100 ft 302 kts 53°
2026-05-07 12:39 55.63106 -4.09219 7872 ft 300 kts 53°
2026-05-07 12:39 55.64408 -4.06341 7642 ft 299 kts 53°
2026-05-07 12:39 55.65710 -4.03462 7416 ft 299 kts 53°
2026-05-07 12:40 55.67074 -4.00687 7183 ft 299 kts 41°
2026-05-07 12:40 55.68804 -3.98645 6953 ft 299 kts 30°
2026-05-07 12:40 55.70602 -3.96810 6710 ft 298 kts 29°
2026-05-07 12:40 55.72403 -3.94991 6465 ft 297 kts 29°
2026-05-07 12:41 55.74197 -3.93160 6206 ft 298 kts 29°
2026-05-07 12:41 55.75978 -3.91321 5950 ft 295 kts 29°
2026-05-07 12:41 55.77752 -3.89494 5763 ft 294 kts 29°
2026-05-07 12:41 55.79559 -3.87820 5573 ft 292 kts 17°
2026-05-07 12:42 55.81536 -3.87433 5398 ft 284 kts 348°
2026-05-07 12:42 55.83382 -3.88495 5211 ft 277 kts 331°
2026-05-07 12:42 55.85121 -3.89931 5034 ft 272 kts 329°
2026-05-07 12:42 55.86796 -3.91338 4850 ft 262 kts 329°
2026-05-07 12:43 55.88410 -3.92697 4712 ft 252 kts 329°
2026-05-07 12:43 55.89976 -3.94012 4574 ft 246 kts 329°
2026-05-07 12:43 55.91518 -3.95310 4442 ft 244 kts 329°
2026-05-07 12:43 55.93051 -3.96603 4321 ft 242 kts 329°
2026-05-07 12:44 55.94573 -3.97878 4186 ft 241 kts 329°
2026-05-07 12:44 55.96093 -3.99152 4056 ft 241 kts 329°
2026-05-07 12:44 55.97566 -4.00371 3925 ft 231 kts 329°
2026-05-07 12:44 55.98967 -4.01622 3791 ft 219 kts 318°
2026-05-07 12:45 55.99837 -4.03651 3665 ft 200 kts 281°
2026-05-07 12:45 55.99951 -4.06082 3549 ft 192 kts 262°
2026-05-07 12:45 55.99855 -4.08421 3436 ft 191 kts 260°
2026-05-07 12:45 55.99730 -4.10779 3356 ft 191 kts 259°
2026-05-07 12:46 55.99596 -4.13149 3284 ft 192 kts 259°
2026-05-07 12:46 55.99462 -4.15521 3212 ft 191 kts 259°
2026-05-07 12:46 55.99337 -4.17879 3121 ft 190 kts 259°
2026-05-07 12:46 55.99109 -4.20178 3037 ft 186 kts 245°
2026-05-07 12:47 55.98461 -4.22152 2991 ft 185 kts 227°
2026-05-07 12:47 55.97595 -4.23790 2857 ft 176 kts 225°
2026-05-07 12:47 55.96784 -4.25319 2650 ft 166 kts 224°
2026-05-07 12:47 55.96010 -4.26776 2437 ft 159 kts 225°
2026-05-07 12:48 55.95258 -4.28193 2224 ft 156 kts 224°
2026-05-07 12:48 55.94526 -4.29570 2018 ft 149 kts 224°
2026-05-07 12:48 55.93832 -4.30875 1821 ft 143 kts 224°
2026-05-07 12:48 55.93156 -4.32145 1626 ft 140 kts 224°
2026-05-07 12:49 55.92486 -4.33405 1445 ft 139 kts 224°
2026-05-07 12:49 55.91860 -4.34580 1244 ft 126 kts 223°
2026-05-07 12:49 55.91269 -4.35685 1050 ft 121 kts 220°
2026-05-07 12:49 55.90707 -4.36753 903 ft 116 kts 220°
2026-05-07 12:50 55.90148 -4.37795 737 ft 117 kts 219°
2026-05-07 12:50 55.89595 -4.38836 574 ft 115 kts 219°
2026-05-07 12:50 55.89038 -4.39875 390 ft 118 kts 221°
2026-05-07 12:50 55.88470 -4.40946 249 ft 117 kts 220°
2026-05-07 12:51 55.87905 -4.41989 105 ft 116 kts 221°
2026-05-07 12:51 55.87367 -4.42987 33 ft 100 kts 227°
2026-05-07 12:51 55.87045 -4.43589 39 ft 28 kts 218°
2026-05-07 12:51 55.86887 -4.43703 32 ft 22 kts 198°
2026-05-07 12:52 55.86781 -4.43767 31 ft 10 kts 199°
2026-05-07 12:52 55.86744 -4.43758 33 ft 2 kts 148°
2026-05-07 12:52 55.86735 -4.43698 33 ft 8 kts 85°
2026-05-07 12:52 55.86754 -4.43569 33 ft 12 kts 72°
2026-05-07 12:53 55.86780 -4.43423 32 ft 13 kts 72°
2026-05-07 12:53 55.86773 -4.43282 33 ft 12 kts 141°
2026-05-07 12:53 55.86693 -4.43240 33 ft 13 kts 164°
2026-05-07 12:53 55.86616 -4.43199 33 ft 7 kts 157°
2026-05-07 12:54 55.86612 -4.43142 33 ft 4 kts 73°
2026-05-07 12:54 55.86619 -4.43102 32 ft 0 kts 73°